{"data":{"norad_id":45773,"intl_designator":"2020-038AV","name":"STARLINK-1482","alt_names":[],"object_type":"PAYLOAD","status":"ACTIVE","operator":null,"country":"US","launch_date":"2020-06-13","launch_site_code":"AFETR","launch_vehicle":null,"mission":null,"orbit_class":"UNKNOWN","rcs_meters":null,"size_class":null,"mass_kg":null,"dimensions":null,"purposes":["comms"],"wikipedia_slug":null,"has_3d_model":false,"image_url":null,"decayed_at":null,"tle_current":{"epoch":"2026-05-25T03:16:22.698048Z","epoch_age_seconds":59739,"freshness":"FRESH","line1":"1 45773U 20038AV  26145.13637382  .00024830  00000+0  69413-3 0  9992","line2":"2 45773  53.1575 194.2063 0004648 343.9328  16.1528 15.36555658328570","mean_motion":15.36555658,"eccentricity":0.0004648,"inclination_deg":53.1575,"raan_deg":194.2063,"arg_perigee_deg":343.9328,"mean_anomaly_deg":16.1528,"bstar":0.00069413,"rev_number":32857,"period_min":93.716097591565,"perigee_km":453.12701397746,"apogee_km":459.48031001685,"semimajor_km":6834.4406619972,"source":"CELESTRAK","updated_at":"2026-05-25T13:38:16.456899Z"}}}